This demonstration page uses our WeatherBlox Daily Observations layout. Learn more.

Left ArrowRight Arrow

39.01783, -85.05884

Hourly Observations for September 5, 2020

Temp ( °F °C ) Dew Point ( °F °C ) Humidity (%) Winds ( mph kmh ) Pressure ( in mb ) Visibility ( mi km ) Precip ( " mm )
12:52 am 00:52 Clear 64 17.8 47 8.3 54 54 NNW 7 11 30.23 1024 10 16 0.00 0.00
1:52 am 01:52 Clear 56 13.3 50 10 81 81 S 3 6 30.25 1024 10 16 0.00 0.00
2:52 am 02:52 Clear 58 14.4 50 10 75 75 Calm 30.24 1024 10 16 0.00 0.00
3:52 am 03:52 Clear 55 12.8 50 10 83 83 Calm 30.24 1024 10 16 0.00 0.00
4:52 am 04:52 Mostly Clear 54 12.2 50 10 87 87 Calm 30.25 1024 10 16 0.00 0.00
5:52 am 05:52 Clear 53 11.7 50 10 89 89 S 3 6 30.26 1025 10 16 0.00 0.00
6:52 am 06:52 Mostly Clear 53 11.7 50 10 89 89 S 6 9 30.27 1025 10 16 0.00 0.00
7:52 am 07:52 Partly Cloudy 56 13.3 51 10.6 84 84 SW 3 6 30.29 1026 10 16 0.00 0.00
8:52 am 08:52 Partly Cloudy 61 16.1 54 12.2 78 78 Calm 30.30 1026 10 16 0.00 0.00
9:52 am 09:52 Mostly Sunny 67 19.4 53 11.7 61 61 Calm 30.30 1026 10 16 0.00 0.00
10:52 am 10:52 Mostly Sunny 72 22.2 53 11.7 52 52 SSW 6 9 30.31 1026 10 16 0.00 0.00
11:52 am 11:52 Mostly Sunny 74 23.3 51 10.6 45 45 VRB 6 9 30.31 1026 10 16 0.00 0.00
12:52 pm 12:52 Sunny 76 24.4 49 9.4 39 39 S 9 15 30.29 1026 10 16 0.00 0.00
1:52 pm 13:52 Sunny 77 25 50 10 39 39 SSW 9 15 30.27 1025 10 16 0.00 0.00
2:52 pm 14:52 Sunny 78 25.6 52 11.1 40 40 SW 8 13 30.27 1025 10 16 0.00 0.00
3:52 pm 15:52 Sunny 79 26.1 52 11.1 39 39 SSW 10 17 30.24 1024 10 16 0.00 0.00
4:52 pm 16:52 Sunny 79 26.1 53 11.7 41 41 SSW 9 15 30.22 1023 10 16 0.00 0.00
5:52 pm 17:52 Sunny 79 26.1 53 11.7 41 41 SW 8 13 30.21 1023 10 16 0.00 0.00
6:52 pm 18:52 Sunny 76 24.4 53 11.7 45 45 SSW 8 13 30.20 1023 10 16 0.00 0.00
7:52 pm 19:52 Mostly Sunny 72 22.2 54 12.2 53 53 SSW 6 9 30.20 1023 10 16 0.00 0.00
8:52 pm 20:52 Mostly Clear 68 20 55 12.8 63 63 S 5 7 30.21 1023 10 16 0.00 0.00
9:52 pm 21:52 Clear 66 18.9 56 13.3 70 70 SSW 5 7 30.21 1023 10 16 0.00 0.00
10:52 pm 22:52 Clear 66 18.9 55 12.8 68 68 SSW 7 11 30.22 1023 10 16 0.00 0.00
11:52 pm 23:52 Clear 65 18.3 55 12.8 70 70 SSW 7 11 30.21 1023 10 16 0.00 0.00

Powered by AerisWeather